Weather in Tatarskoye Abdikeyevo

Russia / Samara Oblast     54°23′24″N   51°44′55″E
temp.,
°C
wind,
m/s
gust,
m/s
humid.,
%
clouds,
%
prec.,
mm/h
press.,
hPa
HPBL,
m
25 february, thu
thu2501:00−29nnw2210036 0.0 103419
04:00−30wnw1210018 0.0 103419
07:00−30wsw111001 0.0 103419
10:00−26ssw22929 0.0 103487
13:00−22s4690100 0.0 1032222
16:00−20s61087100 0.0 1029336
19:00−20s71290100 0.0 1026353
22:00−19s71395100 0.3 1024448
26 february, fri
fri2601:00−19s71294100 0.4 1022504
04:00−18sse71394100 0.8 1021493
07:00−18sse71294100 0.3 1019474
10:00−16sse71193100 0.6 1018508
13:00−13sse71190100 0.2 1017624
16:00−11sse71191100 0.4 1015647
19:00−12sse81392100 0.2 1012506
22:00−11sse91693100 0.8 1008436
27 february, sat
sat2701:00−9sse111893100 2.4 1001487
04:00−6s91694100 6.8 997470
07:00+1w71398100 1.4 995619
10:000wsw5998100 1.8 995567
13:000wsw61099100 0.6 995693
16:000wsw61097100 1.3 996722
19:00−1wsw4898100 0.5 996409
22:00−1sw4898100 1.8 997398
28 february, sun
sun2801:00−2sw4898100 1.1 996363
04:00−9wnw4795100 1.6 998248
07:00−11nw479599 0.2 1000256
10:00−13nw479497 0.3 1002321
13:00−12nw5793100 0.1 1005407
16:00−12nnw5893100 0.3 1007473
19:00−14nw599598 0.1 1009326
22:00−15nw589699 0.3 1011259
1 march, mon
mon101:00−15nw489698 0.2 1013253
04:00−16nnw479695 0.3 1015210
07:00−17nnw489688 0.1 1016264
10:00−16n479592 0.2 1018326
13:00−15nnw4695100 0.0 1020347
16:00−15nnw4695100 0.1 1021327
19:00−19nw349998 0.0 102272
22:00−21wnw2210090 0.1 102220